Regional Weather Roundup
Issued by NWS

Home | Current Version | Previous Version | Graphics & Text | Print | Product List | Glossary On
Versions: 1 2 3 4 5 6 7 8 9 10 11 12 13 14 15 16 17 18 19 20 21 22 23 24 25 26 27 28 29 30 31 32 33 34 35 36 37 38 39 40 41 42 43 44 45 46 47 48 49 50
000
ASUS43 KMKX 230411
RWRWI

WISCONSIN REGIONAL WEATHER ROUNDUP
NATIONAL WEATHER SERVICE MILWAUKEE/SULLIVAN WI
1100 PM CDT FRI AUG 22 2014

NOTE: "FAIR" INDICATES FEW OR NO CLOUDS BELOW 12,000 FEET WITH NO
SIGNIFICANT WEATHER AND/OR OBSTRUCTIONS TO VISIBILITY.

WIZ001-002-006>008-014>016-023>028-230500-
NORTHWEST WISCONSIN

CITY           SKY/WX    TMP DP  RH WIND       PRES   REMARKS
SUPERIOR ARPT  CLOUDY    62  61  97 CALM      30.07R
ASHLAND        CLOUDY    63  61  93 CALM      30.06S
HAYWARD        CLOUDY    66  64  93 N6        30.06S
SIREN          CLOUDY    67  64  91 N3        30.05S
RICE LAKE      CLOUDY    70  67  90 N3        30.05S
LADYSMITH      CLOUDY    70  68  93 N5        30.05S
EAU CLAIRE     MOCLDY    70  69  97 N5        30.00S
MENOMONIE      CLEAR     71  68  91 NW3       30.02S
NEW RICHMOND   CLOUDY    71  69  95 NE3       30.04S
OSCEOLA        CLOUDY    71  70  98 CALM      30.06S
$$

WIZ003>005-009-010-017-018-230500-
NORTH CENTRAL WISCONSIN

CITY           SKY/WX    TMP DP  RH WIND       PRES   REMARKS
WOODRUFF       CLOUDY    69  67  92 NW5       30.05S FOG
RHINELANDER    FOG       68  68 100 CALM      30.05S VSB 1/4
EAGLE RIVER    CLOUDY    69  69 100 CALM      30.04S FOG
LAND O LAKES   FOG       69  69 100 CALM      30.06R VSB 1/2
PHILLIPS       CLOUDY    67  66  97 N3        30.04S
TOMAHAWK       CLOUDY    69  68  96 CALM      30.05R FOG
MEDFORD        MOCLDY    69  68  99 N5        30.03F FOG
MERRILL        FOG       68  68 100 CALM      30.03S VSB 3/4
$$

WIZ029-030-035-036-043>047-230500-
CENTRAL WISCONSIN

CITY           SKY/WX    TMP DP  RH WIND       PRES   REMARKS
WAUSAU         MOCLDY    72  71  97 E5        30.00S FOG
MOSINEE        CLOUDY    72  72 100 E7        30.02S FOG
MARSHFIELD     MOCLDY    73  71  93 NE6       30.00S FOG
STEVENS POINT  CLOUDY    73  71  92 E6        30.01S
WAUPACA        CLOUDY    74  73  93 CALM      30.00S FOG
WAUTOMA        CLOUDY    75  73  93 CALM      29.99S
WISC RAPIDS    MOCLDY    75  72  90 E7        30.00S
CAMP DOUGLAS   PTCLDY    72  72 100 W5        29.98F FOG
$$

WIZ011>013-019>022-031-037>040-048>050-230500-
NORTHEAST WISCONSIN

CITY           SKY/WX    TMP DP  RH WIND       PRES   REMARKS
ANTIGO         CLOUDY    70  70 100 SE6       30.04S FOG
STURGEON BAY   PTCLDY    68  64  88 E3        30.02S
GREEN BAY      MOCLDY    71  69  93 E6        30.01S
MANITOWOC      FOG       66  66 100 CALM      30.01S VSB 1/4
APPLETON       MOCLDY    72  70  94 SE5       30.01R FOG
CLINTONVILLE   PTCLDY    70  68  94 E5        30.01S
OSHKOSH        PTCLDY    73  70  90 SE3       29.99S
$$

WIZ032>034-041-042-053>061-230500-
SOUTHWEST WISCONSIN

CITY           SKY/WX    TMP DP  RH WIND       PRES   REMARKS
LA CROSSE      MOCLDY    75  72  90 NW8       29.97S
SPARTA         PTCLDY    71  69  95 CALM      29.98F FOG
VIROQUA        FAIR      74  74 100 N3        30.00S
BOSCOBEL       MOCLDY    78  75  90 CALM      29.95F FOG     HX  81
PRAIRIE DU CHI CLOUDY    78  75  91 CALM      29.95S
PLATTEVILLE    FAIR      77  75  95 SE3       29.98F
$$

WIZ056-057-062-063-064-067-068-230500-
SOUTH CENTRAL WISCONSIN

CITY           SKY/WX    TMP DP  RH WIND       PRES   REMARKS
BARABOO/DELLS  PTCLDY    74  72  91 CALM      29.97F
LONE ROCK      MOCLDY    79  74  84 CALM      29.96S HX  82
WATERTOWN      CLOUDY    72  72  99 E8        29.99S
MADISON        PTCLDY    77  73  87 SE6       29.97S
MIDDLETON      MOCLDY    79  77  94 SE6       29.98S HX  84
MONROE         MOCLDY    75  73  94 SW6       29.99S
JANESVILLE     MOCLDY    77  73  88 E6        29.98R
$$

WIZ051-052-058>065-066-070>072-230500-
SOUTHEAST WISCONSIN

CITY           SKY/WX    TMP DP  RH WIND       PRES   REMARKS
MILWAUKEE      FOG       70  69  97 NE3       30.00S VSB 1/4
WAUKESHA       CLOUDY    70  68  94 SE3       30.02S FOG
MILWAUKEE/TIMM FOG       68  66  94 NE3       30.02R VSB 3/4
RACINE         FOG       71  70  96 CALM      30.02S VSB 1/2
BURLINGTON     CLOUDY    71  70  98 CALM      30.00S FOG
KENOSHA        CLOUDY    73  71  93 NE5       30.01R FOG
FOND DU LAC    MOCLDY    72  68  87 SE9       29.99S
SHEBOYGAN      FOG       68  67  96 CALM      30.01S VSB 1/4
WEST BEND      FOG       68  64  88 CALM      30.02R VSB 1/4
JUNEAU         PTCLDY    71  45  38 E6        30.01S HAZE
$$

LSZ147-162-230500-
LAKE SUPERIOR

STATION/POSITION TIME  TEMP    WIND        PRES    WAVE
                       AIR SEA DIR/SP/G            HT/PER
                 (UTC) (F)     (DEG/KT/KT) (MB)    (FT/S)
W MID LAKE BUOY  0350   59 59   40/ 10/ 12 1017.3R   1/ 4
DEVILS ISLAND    0400   61      70/  5/  6 1017.9R
PORT WING        0340   61     360/  4/  5 1017.9R
SAXON HARBOR     0300   62        CALM     1017.6R
$$

LMZ867-665-643>646-230500-
LAKE MICHIGAN

STATION/POSITION TIME  TEMP    WIND        PRES    WAVE
                       AIR SEA DIR/SP/G            HT/PER
                 (UTC) (F)     (DEG/KT/KT) (MB)    (FT/S)
N MID LAKE BUOY  0350   68 66   90/  6/  8 1016.0S   0
NORTHPORT PIER   0300   67      CALM  /  2 1016.6R
SISTER BAY       0326   69     100/  6/  8   N/A
ALGOMA LAKESHORE 0223           50/  3/  4   N/A
KEWAUNEE LAKESHO 0300   67      CALM  /  4 1015.4R
SHEBOYGAN LAKESH 0400   67 65     CALM     1016.3R
ATWATER BUOY     0300   69      40/  4/  4 1017.2R
MILWAUKEE LAKESH 0300   69      30/  5/  5   N/A
S MID LAKE BUOY  0350   69 70   40/  8/  8 1015.9R   0
KENOSHA   LAKESH 0400   72     360/  5/  7 1015.6R
$$

TC  - TEMPERATURE IN CELSIUS
VSB - VISIBILITY IN STATUTE MILES
WCI - WIND CHILL INDEX
HX  - HEAT INDEX



USA.gov is the U.S. government's official web portal to all federal, state and local government web resources and services.